[[{"header":{"parameterUnit":"m.s-1","parameterCategory":2,"la1":30.2991,"la2":30.254,"lo1":-89.0895,"lo2":-89.0444,"dy":0.0017,"dx":0.0017,"nx":28,"ny":28,"refTime":"2025-06-03T03:00:00:Z","depth":"0","parameterNumber":2,"parameterNumberName":"U-component_of_CURRENTS"},"data":[0,0,0,0,0,0,0,0,0,0,0,0,0,0,0,0,0,0,0,0,0,0,0,0,0,0,0,0,0,0,0,0,0,0,0,0,0,0,0,0,0,0,0,0,0,0,0,0,0,0,0,0,0,0,0,0,0,0,0.2479,0.2479,0,0.2455,0.2455,0.2454,0.2384,0.2382,0.2381,0.238,0.2403,0.2404,0.2406,0,0,0,0,0,0,0,0,0,0,0,0,0,0.2489,0.2489,0.2479,0.2479,0.2479,0.2455,0.2455,0.2454,0.2384,0.2382,0.2381,0.2379,0.2402,0.2404,0.2406,0,0,0,0,0,0,0,0,0,0,0,0,0,0.2474,0.2489,0.2479,0.2443,0.244,0.2455,0.2455,0.2454,0.2384,0.2382,0.238,0.2378,0.2401,0.2404,0.2407,0.2462,0,0,0.2415,0.2416,0,0,0,0,0,0,0,0,0.2475,0.2474,0.2448,0.2446,0.2442,0.2423,0.2466,0.246,0.2385,0.2402,0.238,0.2378,0.2417,0.2418,0.2413,0.2463,0.2464,0.2415,0.2417,0.2418,0.2419,0,0,0,0,0,0,0,0.2476,0.2474,0.2467,0.2449,0.2445,0.2437,0.2432,0.2465,0.242,0.2401,0.2396,0.2399,0.2415,0.2411,0.2414,0.2464,0.2415,0.2417,0.2419,0.242,0.2568,0.257,0,0,0,0,0,0,0.2486,0.2475,0.2468,0.2466,0.2457,0.2438,0.2433,0.2429,0.2418,0.2415,0.24,0.2395,0.2407,0.2411,0.2414,0.2459,0.2418,0.242,0.2422,0.2565,0.2568,0.2571,0,0,0,0,0,0,0.2486,0.2485,0.2469,0.2473,0.247,0.244,0.2436,0.2429,0.2415,0.2418,0.2414,0.2393,0.2406,0.241,0.2442,0.246,0.2422,0.2424,0.2563,0.2566,0.2569,0.2562,0,0,0,0,0,0,0.2486,0.2485,0.2493,0.2473,0.2471,0.2483,0.2438,0.243,0.2422,0.2415,0.2411,0.2411,0.2405,0.2438,0.2445,0.2463,0.2426,0.256,0.2564,0.2568,0.2559,0.2564,0.2569,0,0,0,0,0,0.2486,0.2509,0.2493,0.2493,0.2479,0.2485,0.2483,0.2453,0.2424,0.243,0.2424,0.2411,0.247,0.2442,0.2449,0.2468,0.2558,0.2563,0.2568,0.2557,0.2563,0.2569,0,0,0,0,0,0,0.2525,0.2504,0.2485,0.2501,0.2495,0.2474,0.2485,0.2459,0.2457,0.245,0.2436,0.2438,0.2475,0.2487,0.2456,0.253,0.2515,0.2522,0.2504,0.2511,0.2515,0.2519,0.2428,0,0,0,0,0,0.2537,0.2537,0.2523,0.2534,0.2536,0.2509,0.2509,0.2487,0.2481,0.2475,0.2469,0.2481,0.2508,0.2517,0.2545,0.2585,0.261,0.2608,0.2613,0.2616,0.2629,0.2683,0.2693,0.2587,0.2587,0.2587,0,0,0.2552,0.2544,0.2542,0.2542,0.2533,0.2534,0.2503,0.2508,0.2499,0.2486,0.2483,0.2502,0.2526,0.2562,0.2581,0.2568,0.2663,0.2623,0.2625,0.2636,0.2689,0.2699,0.2708,0.2591,0.259,0.259,0,0,0.2581,0.2579,0.2585,0.2583,0.2579,0.2564,0.2566,0.2548,0.2532,0.2544,0.2535,0.2564,0.2592,0.2609,0.2622,0.2683,0.2691,0.2697,0.2715,0.2767,0.2775,0.2783,0.2827,0.2839,0.2693,0.2693,0.2693,0,0.2597,0.2598,0.2592,0.2599,0.2594,0.2576,0.2577,0.2572,0.2562,0.2561,0.2547,0.2599,0.2615,0.2659,0.2677,0.269,0.2722,0.2677,0.277,0.2778,0.2786,0.2829,0.2842,0.2693,0.2693,0.2693,0.2693,0,0.2623,0.2623,0.2634,0.2621,0.2625,0.2629,0.2617,0.2619,0.2599,0.2588,0.2625,0.265,0.2678,0.2695,0.2701,0.2771,0.2776,0.2768,0.2743,0.2795,0.2839,0.2852,0.2693,0.2693,0.2693,0.2693,0,0,0.2632,0.2645,0.2642,0.2629,0.2631,0.2626,0.2637,0.2634,0.2624,0.2642,0.2641,0.2704,0.2714,0.2736,0.2754,0.2802,0.2881,0.2812,0.2814,0.2835,0.3,0.2954,0.2964,0.2887,0.2889,0.2891,0.3006,0,0.2639,0.2652,0.2655,0.2646,0.2643,0.2638,0.264,0.2641,0.2638,0.264,0.2682,0.2701,0.2729,0.2742,0.28,0.2858,0.2918,0.2851,0.2965,0.2968,0.2904,0.2979,0.2847,0.2934,0.3019,0.3021,0.3023,0,0.264,0.2646,0.265,0.2633,0.2631,0.2627,0.2614,0.2615,0.2635,0.2637,0.2679,0.2702,0.2783,0.2788,0.2934,0.2891,0.2959,0.3005,0.301,0.2981,0.2948,0.29,0.2955,0.2777,0.3043,0.3042,0.304,0,0.2617,0.2624,0.2621,0.2618,0.2616,0.2611,0.2607,0.2616,0.261,0.264,0.2644,0.2731,0.2767,0.2878,0.2974,0.2966,0.312,0.3113,0.3143,0.314,0.3058,0.3043,0.2937,0.3233,0.3233,0.3232,0.3232,0,0.2605,0.2589,0.2608,0.26,0.2581,0.2589,0.257,0.2577,0.2592,0.2588,0.2645,0.2668,0.2794,0.2882,0.2984,0.3102,0.3135,0.3171,0.3176,0.3052,0.3036,0.2902,0.2835,0.3236,0.3236,0.3235,0.3234,0,0.2565,0.2583,0.2569,0.2574,0.2568,0.2553,0.254,0.2527,0.2553,0.2554,0.2568,0.2642,0.2756,0.2872,0.3036,0.3099,0.3112,0.3249,0.3089,0.3074,0.2929,0.2869,0.2801,0.2734,0.3315,0.3315,0.3315,0,0.2541,0.2537,0.2541,0.2526,0.2522,0.2505,0.2488,0.2504,0.2493,0.2537,0.2536,0.2637,0.2694,0.29,0.3032,0.3194,0.3081,0.3149,0.3117,0.2916,0.2854,0.277,0.2711,0.3012,0.3009,0.3007,0.3005,0,0.2484,0.2494,0.2489,0.2475,0.2454,0.2428,0.2411,0.24,0.242,0.2435,0.2466,0.252,0.2699,0.2779,0.2963,0.3062,0.294,0.3109,0.2943,0.265,0.2513,0.2449,0.2934,0.2985,0.2987,0.2989,0.299,0.2991,0.2429,0.2421,0.2423,0.2393,0.2374,0.2337,0.2291,0.2293,0.228,0.2269,0.2374,0.2413,0.2518,0.2763,0.2827,0.2781,0.2846,0.2705,0.2668,0.2616,0.2479,0.2919,0.2942,0.2943,0.2945,0.2946,0.2947,0,0.2346,0.2344,0.2328,0.2289,0.2235,0.2256,0.2215,0.2159,0.2118,0.2168,0.2193,0.2251,0.2296,0.238,0.241,0.2326,0.2293,0.2228,0.2048,0.2033,0.2452,0.236,0.2202,0.2202,0.2203,0.2203,0.2203,0.2203,0.2297,0.2265,0.2262,0.2153,0.2118,0.202,0.1981,0.1935,0.194,0.1898,0.1904,0.1967,0.1999,0.1927,0.1808,0.1816,0.1663,0.1609,0.1617,0.1837,0.1876,0.1914,0.1807,0.1536,0.1535,0.1125,0.1121,0.1118]},{"header":{"parameterUnit":"m.s-1","parameterCategory":2,"la1":30.2991,"la2":30.254,"lo1":-89.0895,"lo2":-89.0444,"dy":0.0017,"dx":0.0017,"nx":28,"ny":28,"refTime":"2025-06-03T03:00:00:Z","depth":"0","parameterNumber":3,"parameterNumberName":"V-component_of_CURRENTS"},"data":[0,0,0,0,0,0,0,0,0,0,0,0,0,0,0,0,0,0,0,0,0,0,0,0,0,0,0,0,0,0,0,0,0,0,0,0,0,0,0,0,0,0,0,0,0,0,0,0,0,0,0,0,0,0,0,0,0,0,-0.0184,-0.0184,0,-0.0211,-0.0211,-0.0211,-0.0256,-0.0257,-0.0258,-0.0258,-0.0287,-0.0287,-0.0287,0,0,0,0,0,0,0,0,0,0,0,0,0,-0.0185,-0.0185,-0.0184,-0.0184,-0.0184,-0.0211,-0.0211,-0.0211,-0.0256,-0.0257,-0.0258,-0.0259,-0.0287,-0.0287,-0.0287,0,0,0,0,0,0,0,0,0,0,0,0,0,-0.0196,-0.0185,-0.0184,-0.0209,-0.0211,-0.021,-0.0211,-0.0212,-0.0256,-0.0257,-0.0258,-0.0259,-0.0287,-0.0287,-0.0287,-0.0266,0,0,-0.0288,-0.0288,0,0,0,0,0,0,0,0,-0.0195,-0.0196,-0.0205,-0.0207,-0.021,-0.023,-0.0222,-0.0229,-0.0256,-0.024,-0.0258,-0.026,-0.0267,-0.0269,-0.0273,-0.0267,-0.0268,-0.0288,-0.0288,-0.0288,-0.0288,0,0,0,0,0,0,0,-0.0195,-0.0195,-0.0195,-0.0205,-0.0208,-0.0224,-0.0226,-0.0224,-0.0248,-0.0241,-0.0245,-0.0246,-0.0269,-0.0272,-0.0274,-0.0269,-0.0288,-0.0288,-0.0288,-0.0288,-0.0197,-0.0195,0,0,0,0,0,0,-0.0187,-0.0194,-0.0195,-0.0196,-0.0204,-0.0222,-0.0226,-0.0223,-0.0248,-0.0252,-0.0245,-0.0248,-0.0272,-0.0273,-0.0275,-0.0214,-0.0288,-0.0288,-0.0288,-0.02,-0.0197,-0.0194,0,0,0,0,0,0,-0.0187,-0.0187,-0.0194,-0.0196,-0.0197,-0.0221,-0.0218,-0.0223,-0.0227,-0.025,-0.0255,-0.0243,-0.0273,-0.0275,-0.0256,-0.0217,-0.0288,-0.0288,-0.0203,-0.0199,-0.0195,-0.0116,0,0,0,0,0,0,-0.0187,-0.0186,-0.0185,-0.0195,-0.0197,-0.0188,-0.0217,-0.0223,-0.0226,-0.023,-0.025,-0.0254,-0.0274,-0.0256,-0.0256,-0.0218,-0.0288,-0.0206,-0.0201,-0.0196,-0.0122,-0.011,-0.01,0,0,0,0,0,-0.0187,-0.0184,-0.0184,-0.0184,-0.0193,-0.0187,-0.019,-0.0212,-0.0224,-0.022,-0.0224,-0.0254,-0.0227,-0.0254,-0.0255,-0.0217,-0.0208,-0.0202,-0.0197,-0.0126,-0.0112,-0.01,0,0,0,0,0,0,-0.0195,-0.0188,-0.0189,-0.0187,-0.0182,-0.0195,-0.0197,-0.0203,-0.0204,-0.0208,-0.0229,-0.0232,-0.02,-0.0213,-0.0243,-0.0173,-0.0219,-0.0213,-0.0164,-0.0151,-0.0141,-0.0129,-0.0288,0,0,0,0,0,-0.0189,-0.0181,-0.0177,-0.0176,-0.0171,-0.0178,-0.018,-0.0187,-0.0189,-0.0192,-0.0199,-0.0195,-0.0176,-0.017,-0.0164,-0.0129,-0.0141,-0.01,-0.0089,-0.008,-0.0069,-0.004,-0.0026,-0.0176,-0.0176,-0.0176,0,0,-0.0194,-0.0188,-0.0186,-0.0175,-0.0176,-0.0156,-0.0183,-0.0179,-0.0155,-0.0192,-0.0164,-0.0162,-0.0158,-0.0118,-0.0103,-0.0126,-0.0045,-0.0073,-0.0066,-0.0059,-0.0033,-0.0019,-0.0006,-0.0172,-0.0173,-0.0173,0,0,-0.0191,-0.0189,-0.0175,-0.0162,-0.015,-0.0146,-0.0138,-0.0134,-0.0128,-0.0097,-0.0106,-0.0074,-0.0064,-0.0039,-0.0027,0.0052,0.001,0.0052,0.0117,0.0144,0.0156,0.0167,0.016,0.0169,0.006,0.006,0.006,0,-0.0195,-0.0171,-0.0172,-0.0148,-0.0129,-0.0134,-0.0103,-0.0092,-0.008,-0.005,-0.008,-0.0012,-0.0018,0.0061,0.0084,0.0078,0.0068,0.0062,0.0157,0.0167,0.0177,0.0167,0.0176,0.0065,0.0064,0.0064,0.0063,0,-0.0172,-0.0149,-0.0139,-0.0101,-0.0082,-0.0059,-0.0033,-0.0006,0.0004,0.0025,0.0095,0.0098,0.0142,0.0152,0.0136,0.0219,0.0181,0.0163,0.0118,0.0196,0.0181,0.0189,0.0071,0.0069,0.0068,0.0067,0,0,-0.018,-0.0131,-0.0124,-0.0088,-0.005,-0.0025,0.0027,0.0088,0.0141,0.0159,0.0235,0.0274,0.0279,0.0295,0.0293,0.0317,0.0365,0.0268,0.0267,0.0251,0.04,0.0363,0.0367,0.0356,0.0359,0.0361,0.0358,0,-0.0154,-0.0098,-0.0077,-0.0008,0.003,0.0061,0.0116,0.0172,0.0211,0.0281,0.0316,0.0372,0.0334,0.0359,0.0384,0.0374,0.0392,0.0366,0.0336,0.0335,0.0285,0.0378,0.0393,0.0392,0.0366,0.0367,0.0368,0,-0.0124,-0.0086,-0.0022,0.0066,0.0086,0.0127,0.0231,0.028,0.0373,0.0405,0.0471,0.0485,0.0547,0.0489,0.0517,0.0497,0.0459,0.0437,0.0436,0.0381,0.0314,0.0314,0.0407,0.0323,0.0379,0.0379,0.0378,0,-0.0107,-0.0035,0.0022,0.0047,0.0133,0.018,0.0231,0.0322,0.0388,0.0485,0.0537,0.0601,0.0634,0.0618,0.057,0.0545,0.0577,0.0535,0.0467,0.0461,0.046,0.0452,0.0464,0.0554,0.0554,0.0554,0.0554,0,-0.007,-0.0019,0.0034,0.007,0.0159,0.0206,0.0312,0.0371,0.047,0.0565,0.0598,0.0675,0.0665,0.0679,0.0617,0.0574,0.0614,0.05,0.0477,0.0487,0.0481,0.0394,0.0345,0.0554,0.0554,0.0554,0.0554,0,-0.0044,-0.0017,0.0058,0.014,0.017,0.0235,0.035,0.0431,0.0505,0.0627,0.0659,0.0742,0.0761,0.0731,0.0708,0.0635,0.0555,0.0557,0.0551,0.0528,0.0374,0.033,0.0338,0.0321,0.049,0.049,0.0489,0,-0.0017,0.0016,0.01,0.0147,0.0187,0.0279,0.0353,0.0443,0.0527,0.0669,0.0734,0.0793,0.0858,0.081,0.0711,0.062,0.0547,0.0537,0.0501,0.0393,0.0326,0.0309,0.0293,0.0523,0.0523,0.0523,0.0523,0,0.0038,0.0054,0.0112,0.0195,0.0268,0.0361,0.0463,0.053,0.0645,0.0738,0.0862,0.0923,0.09,0.0855,0.0724,0.064,0.0498,0.0527,0.0443,0.0388,0.0347,0.0309,0.0464,0.0521,0.0521,0.0522,0.0522,0.0522,0.0078,0.0122,0.0182,0.0266,0.0345,0.0444,0.0522,0.0624,0.0749,0.09,0.0945,0.106,0.0977,0.0823,0.0695,0.0463,0.0473,0.0383,0.0345,0.0342,0.0317,0.0447,0.0458,0.0458,0.0458,0.0457,0.0457,0,0.0135,0.018,0.0257,0.0355,0.0441,0.0474,0.0604,0.068,0.0813,0.0957,0.1064,0.112,0.0973,0.0802,0.0501,0.0323,0.0283,0.0222,0.0212,0.0209,0.0354,0.0344,0.0299,0.0299,0.0299,0.0299,0.0299,0.0299,0.0174,0.0246,0.0281,0.0423,0.049,0.0601,0.0671,0.0773,0.0887,0.105,0.1157,0.1239,0.111,0.0589,0.0236,0.0153,0.0064,0.0039,-0.0014,0.0071,0.0084,0.0095,0.0076,-0.0025,-0.0026,-0.0116,-0.0117,-0.0118]}],[{"header":{"parameterUnit":"m.s-1","parameterCategory":2,"la1":30.2991,"la2":30.254,"lo1":-89.0895,"lo2":-89.0444,"dy":0.0017,"dx":0.0017,"nx":28,"ny":28,"refTime":"2025-06-03T03:00:00:Z","depth":"2","parameterNumber":2,"parameterNumberName":"U-component_of_CURRENTS"},"data":[0,0,0,0,0,0,0,0,0,0,0,0,0,0,0,0,0,0,0,0,0,0,0,0,0,0,0,0,0,0,0,0,0,0,0,0,0,0,0,0,0,0,0,0,0,0,0,0,0,0,0,0,0,0,0,0,0,0,0.1974,0.1974,0,0.1967,0.1967,0.1966,0.2052,0.2054,0.2057,0.2059,0.2091,0.2089,0.2088,0,0,0,0,0,0,0,0,0,0,0,0,0,0.2074,0.2071,0.1974,0.1974,0.1974,0.1967,0.1967,0.1966,0.2051,0.2054,0.2057,0.206,0.2091,0.2089,0.2088,0,0,0,0,0,0,0,0,0,0,0,0,0,0.2044,0.207,0.1974,0.2016,0.202,0.1967,0.1967,0.1966,0.2051,0.2054,0.2058,0.2062,0.2092,0.209,0.2088,0.2001,0,0,0.2081,0.208,0,0,0,0,0,0,0,0,0.2045,0.204,0.201,0.2013,0.2017,0.2015,0.2014,0.198,0.205,0.2038,0.2059,0.2063,0.2067,0.2067,0.2055,0.2003,0.2004,0.2081,0.2079,0.2079,0.2078,0,0,0,0,0,0,0,0.2047,0.2041,0.197,0.201,0.2014,0.204,0.204,0.2007,0.2032,0.2039,0.2046,0.2045,0.207,0.2057,0.2057,0.2004,0.2081,0.2079,0.2078,0.2077,0.2026,0.2026,0,0,0,0,0,0,0.2045,0.2042,0.197,0.197,0.2042,0.2035,0.2035,0.2011,0.2032,0.2038,0.2042,0.2049,0.2059,0.2059,0.2058,0.2087,0.2079,0.2077,0.2075,0.2026,0.2026,0.2026,0,0,0,0,0,0,0.2046,0.2037,0.1971,0.2009,0.2002,0.203,0.2002,0.2009,0.2039,0.2034,0.2042,0.2071,0.2062,0.2062,0.2062,0.2085,0.2076,0.2074,0.2026,0.2026,0.2026,0.2061,0,0,0,0,0,0,0.2049,0.2037,0.203,0.2007,0.2,0.1953,0.1999,0.2006,0.2031,0.2041,0.2059,0.2064,0.2065,0.2065,0.206,0.2082,0.2072,0.2026,0.2026,0.2026,0.206,0.2062,0.2064,0,0,0,0,0,0.2052,0.2014,0.2029,0.2022,0.1985,0.1953,0.1951,0.1983,0.2029,0.2027,0.2052,0.2065,0.2062,0.2062,0.2056,0.2078,0.2026,0.2026,0.2026,0.2059,0.2062,0.2064,0,0,0,0,0,0,0.2047,0.2018,0.2035,0.199,0.1985,0.1968,0.1969,0.1993,0.2008,0.2036,0.2047,0.2051,0.2062,0.2053,0.2054,0.2062,0.2051,0.205,0.2079,0.2081,0.2083,0.2106,0.207,0,0,0,0,0,0.2041,0.2015,0.1996,0.1966,0.1963,0.1974,0.1973,0.1995,0.1999,0.2013,0.2028,0.2044,0.2042,0.2053,0.2041,0.2032,0.204,0.2046,0.2048,0.205,0.2063,0.2085,0.2092,0.2025,0.2025,0.2025,0,0,0.2033,0.2014,0.2002,0.1967,0.1969,0.1953,0.1983,0.1984,0.1991,0.2008,0.2031,0.2042,0.2038,0.2041,0.2047,0.2048,0.2072,0.205,0.2052,0.2064,0.2086,0.2093,0.2099,0.2025,0.2025,0.2025,0,0,0.2002,0.1987,0.1965,0.1956,0.1957,0.1954,0.1962,0.1965,0.1992,0.1996,0.2023,0.2051,0.2041,0.2054,0.2056,0.2054,0.2074,0.206,0.2098,0.2119,0.2126,0.2131,0.2149,0.2156,0.2071,0.2071,0.2071,0,0.2009,0.1965,0.1955,0.1936,0.1937,0.1959,0.1949,0.1954,0.1966,0.1992,0.2015,0.2045,0.2047,0.2065,0.2083,0.2062,0.2081,0.2092,0.2125,0.213,0.2136,0.2152,0.216,0.2072,0.2072,0.2072,0.2072,0,0.1957,0.1942,0.1926,0.1913,0.1907,0.1898,0.1907,0.1928,0.1973,0.1993,0.2036,0.2045,0.2081,0.2082,0.2088,0.213,0.2133,0.2119,0.2124,0.2145,0.2161,0.2168,0.2075,0.2074,0.2074,0.2073,0,0,0.194,0.1901,0.1906,0.1909,0.1903,0.1893,0.1908,0.1927,0.1965,0.1997,0.2046,0.2068,0.2116,0.2122,0.2138,0.2165,0.2221,0.2177,0.2177,0.2205,0.2281,0.2257,0.2262,0.2225,0.2227,0.2228,0.2277,0,0.1923,0.1884,0.1872,0.1864,0.1851,0.1879,0.1887,0.1918,0.1961,0.2007,0.2053,0.2095,0.2115,0.2157,0.2189,0.221,0.2242,0.2209,0.2247,0.2248,0.2234,0.227,0.1982,0.2001,0.2284,0.2285,0.2286,0,0.1891,0.1871,0.1854,0.1856,0.1857,0.1867,0.1918,0.193,0.1991,0.2034,0.2102,0.2135,0.2199,0.2204,0.2275,0.2262,0.2287,0.2296,0.2298,0.2271,0.2238,0.2025,0.2003,0.2297,0.2296,0.2296,0.2295,0,0.189,0.1867,0.1861,0.1857,0.1855,0.1889,0.191,0.1963,0.1988,0.2074,0.2111,0.2182,0.2229,0.2276,0.2325,0.2314,0.2387,0.236,0.2354,0.2352,0.2112,0.2087,0.2406,0.2406,0.2406,0.2406,0.2405,0,0.1866,0.1868,0.1873,0.1869,0.1891,0.1904,0.1952,0.1988,0.2044,0.2072,0.2144,0.2176,0.2255,0.2303,0.234,0.2382,0.2404,0.2377,0.237,0.2116,0.2092,0.2349,0.2341,0.2407,0.2407,0.2407,0.2406,0,0.186,0.1857,0.1854,0.1872,0.1889,0.1918,0.1967,0.1988,0.2056,0.2098,0.2129,0.2193,0.2273,0.2335,0.2403,0.2395,0.2433,0.2437,0.2141,0.21,0.2378,0.2372,0.2435,0.2435,0.2435,0.2434,0.2434,0,0.1842,0.184,0.1864,0.1872,0.1891,0.1934,0.1951,0.2004,0.2018,0.2094,0.2096,0.2196,0.2237,0.2333,0.2291,0.2333,0.2457,0.2151,0.2077,0.2398,0.2385,0.2379,0.2373,0.1761,0.1756,0.1751,0.1747,0,0.1809,0.1836,0.1829,0.1853,0.1879,0.189,0.1924,0.1928,0.1979,0.2015,0.2055,0.2101,0.2137,0.2038,0.2097,0.2085,0.2123,0.2063,0.2454,0.182,0.1772,0.1757,0.1771,0.1706,0.171,0.1713,0.1716,0.1717,0.1791,0.1786,0.1791,0.1813,0.1836,0.1837,0.1835,0.1851,0.1864,0.1881,0.1955,0.1914,0.1859,0.1775,0.1758,0.1733,0.1886,0.1826,0.1835,0.1851,0.1785,0.1742,0.1658,0.1661,0.1664,0.1667,0.167,0,0.173,0.174,0.1745,0.1748,0.1742,0.1803,0.1795,0.1762,0.1753,0.1726,0.1766,0.147,0.1416,0.1423,0.1258,0.1289,0.1217,0.1317,0.1182,0.1222,0.1257,0.1159,0.0866,0.0865,0.0864,0.0863,0,0,0.1691,0.1661,0.1662,0.1643,0.1681,0.1672,0.1672,0.1628,0.1561,0.1389,0.1274,0.1362,0.1299,0.103,0.1012,0.0927,0.1077,0.089,0.1513,0.1388,0.1423,0.1512,0.1401,0,0,0,0,0]},{"header":{"parameterUnit":"m.s-1","parameterCategory":2,"la1":30.2991,"la2":30.254,"lo1":-89.0895,"lo2":-89.0444,"dy":0.0017,"dx":0.0017,"nx":28,"ny":28,"refTime":"2025-06-03T03:00:00:Z","depth":"2","parameterNumber":3,"parameterNumberName":"V-component_of_CURRENTS"},"data":[0,0,0,0,0,0,0,0,0,0,0,0,0,0,0,0,0,0,0,0,0,0,0,0,0,0,0,0,0,0,0,0,0,0,0,0,0,0,0,0,0,0,0,0,0,0,0,0,0,0,0,0,0,0,0,0,0,0,-0.0514,-0.0515,0,-0.0581,-0.0582,-0.0583,-0.0585,-0.0584,-0.0583,-0.0582,-0.067,-0.0674,-0.0677,0,0,0,0,0,0,0,0,0,0,0,0,0,-0.0432,-0.0433,-0.0514,-0.0515,-0.0516,-0.0581,-0.0582,-0.0583,-0.0585,-0.0584,-0.0582,-0.0581,-0.0669,-0.0673,-0.0677,0,0,0,0,0,0,0,0,0,0,0,0,0,-0.0481,-0.0433,-0.0514,-0.0523,-0.0525,-0.058,-0.0582,-0.0583,-0.0585,-0.0584,-0.0582,-0.0581,-0.0668,-0.0673,-0.0678,-0.0736,0,0,-0.0693,-0.0695,0,0,0,0,0,0,0,0,-0.0478,-0.0484,-0.0521,-0.0523,-0.0524,-0.0572,-0.0585,-0.0635,-0.0585,-0.0564,-0.0582,-0.058,-0.064,-0.0647,-0.0664,-0.074,-0.0744,-0.0693,-0.0696,-0.0698,-0.0699,0,0,0,0,0,0,0,-0.0475,-0.0482,-0.0542,-0.0522,-0.0524,-0.0539,-0.0544,-0.0595,-0.061,-0.0565,-0.0565,-0.0571,-0.0641,-0.0659,-0.0666,-0.0745,-0.0693,-0.0697,-0.07,-0.0702,-0.0835,-0.0835,0,0,0,0,0,0,-0.0463,-0.0479,-0.054,-0.0544,-0.0496,-0.0541,-0.0547,-0.0559,-0.0609,-0.0615,-0.0572,-0.0571,-0.0652,-0.0661,-0.0669,-0.0698,-0.0698,-0.0703,-0.0705,-0.0834,-0.0835,-0.0835,0,0,0,0,0,0,-0.0461,-0.0469,-0.0537,-0.0511,-0.052,-0.0544,-0.0558,-0.0561,-0.0578,-0.0614,-0.062,-0.0584,-0.0651,-0.0663,-0.0707,-0.0703,-0.0705,-0.0709,-0.0833,-0.0834,-0.0835,-0.0783,0,0,0,0,0,0,-0.0459,-0.0468,-0.048,-0.051,-0.0521,-0.0566,-0.0559,-0.0563,-0.0583,-0.0582,-0.0627,-0.0633,-0.0651,-0.07,-0.0712,-0.0709,-0.0713,-0.0833,-0.0834,-0.0835,-0.0784,-0.0782,-0.078,0,0,0,0,0,-0.0456,-0.0473,-0.048,-0.0488,-0.0535,-0.0567,-0.0574,-0.0586,-0.0585,-0.0596,-0.0621,-0.0632,-0.0715,-0.0705,-0.0719,-0.0717,-0.0832,-0.0833,-0.0835,-0.0785,-0.0782,-0.078,0,0,0,0,0,0,-0.0449,-0.0476,-0.0484,-0.0511,-0.0535,-0.0566,-0.0583,-0.0592,-0.0623,-0.0621,-0.065,-0.066,-0.0693,-0.0723,-0.0711,-0.076,-0.0772,-0.0777,-0.0729,-0.0728,-0.0726,-0.0689,-0.0717,0,0,0,0,0,-0.0453,-0.0471,-0.0499,-0.0522,-0.0534,-0.0561,-0.0578,-0.0585,-0.0612,-0.0624,-0.0653,-0.0685,-0.0714,-0.0733,-0.0768,-0.0808,-0.0814,-0.0815,-0.0813,-0.0811,-0.0792,-0.0808,-0.0804,-0.084,-0.084,-0.084,0,0,-0.0456,-0.0475,-0.0485,-0.0521,-0.0543,-0.0557,-0.0568,-0.0592,-0.0597,-0.0632,-0.0657,-0.0686,-0.0725,-0.0753,-0.0771,-0.0775,-0.0805,-0.0813,-0.081,-0.0792,-0.0808,-0.0805,-0.0801,-0.0841,-0.0841,-0.0841,0,0,-0.0463,-0.049,-0.0501,-0.052,-0.0547,-0.0563,-0.0568,-0.0599,-0.0607,-0.0641,-0.0655,-0.0677,-0.0741,-0.0749,-0.0766,-0.0783,-0.0796,-0.0801,-0.0761,-0.0777,-0.0773,-0.077,-0.077,-0.0767,-0.0798,-0.0798,-0.0798,0,-0.0463,-0.0482,-0.051,-0.0522,-0.0532,-0.0561,-0.0567,-0.0587,-0.0624,-0.0627,-0.0641,-0.0695,-0.0732,-0.0741,-0.0739,-0.0775,-0.0782,-0.0762,-0.0771,-0.0768,-0.0766,-0.0766,-0.0764,-0.0795,-0.0796,-0.0796,-0.0796,0,-0.047,-0.0487,-0.0497,-0.0516,-0.0533,-0.0547,-0.0567,-0.0582,-0.0597,-0.0608,-0.0626,-0.0667,-0.0689,-0.0709,-0.0729,-0.0728,-0.0737,-0.0765,-0.0767,-0.0758,-0.076,-0.0759,-0.0792,-0.0793,-0.0794,-0.0794,0,0,-0.0465,-0.0493,-0.0497,-0.0495,-0.0527,-0.0536,-0.0547,-0.0558,-0.0545,-0.0584,-0.0568,-0.0617,-0.0624,-0.0641,-0.0668,-0.0679,-0.0672,-0.0707,-0.0709,-0.0689,-0.0691,-0.0583,-0.0571,-0.0701,-0.0701,-0.0701,-0.0697,0,-0.046,-0.0469,-0.0487,-0.0489,-0.0493,-0.0513,-0.0512,-0.0522,-0.0535,-0.053,-0.0557,-0.0562,-0.0603,-0.0602,-0.062,-0.0657,-0.0666,-0.0669,-0.0718,-0.0719,-0.0609,-0.0565,-0.0569,-0.0556,-0.0696,-0.0695,-0.0695,0,-0.0458,-0.0462,-0.0464,-0.0457,-0.0458,-0.0462,-0.0453,-0.0455,-0.0457,-0.0459,-0.0465,-0.0484,-0.0494,-0.0536,-0.058,-0.058,-0.0625,-0.0659,-0.066,-0.057,-0.0606,-0.0591,-0.0548,-0.0693,-0.0693,-0.0693,-0.0693,0,-0.0435,-0.0443,-0.0438,-0.0442,-0.0443,-0.0439,-0.0438,-0.0437,-0.0418,-0.0411,-0.0386,-0.0413,-0.041,-0.0471,-0.0523,-0.0559,-0.0561,-0.0631,-0.0576,-0.057,-0.0585,-0.0578,-0.0661,-0.0661,-0.0661,-0.0661,-0.0661,0,-0.042,-0.0417,-0.0426,-0.0424,-0.0399,-0.041,-0.0379,-0.0377,-0.0354,-0.0309,-0.0343,-0.0298,-0.0393,-0.0403,-0.0483,-0.0485,-0.0532,-0.0538,-0.0549,-0.0565,-0.0558,-0.0693,-0.0696,-0.0661,-0.0661,-0.0661,-0.0661,0,-0.0402,-0.0412,-0.0402,-0.0397,-0.0391,-0.0376,-0.0346,-0.0313,-0.0296,-0.0236,-0.0224,-0.0213,-0.0204,-0.0276,-0.0352,-0.0404,-0.0445,-0.0444,-0.0433,-0.0439,-0.0465,-0.0467,-0.0396,-0.0392,-0.0388,-0.0385,-0.0383,0,-0.0395,-0.039,-0.0382,-0.0368,-0.0369,-0.0345,-0.0316,-0.0292,-0.025,-0.0168,-0.0125,-0.0088,-0.0008,-0.0044,-0.0155,-0.0229,-0.0314,-0.0286,-0.0349,-0.0413,-0.0432,-0.0439,-0.0446,-0.0372,-0.0369,-0.0367,-0.0366,0,-0.0372,-0.0376,-0.0364,-0.0337,-0.0313,-0.027,-0.023,-0.0178,-0.0124,-0.0038,0.0084,0.0166,0.0153,0.0119,0.0038,-0.0044,-0.027,-0.0243,-0.0323,-0.0407,-0.0381,-0.0403,-0.0412,-0.0349,-0.0351,-0.0352,-0.0353,-0.0353,-0.0356,-0.0338,-0.0323,-0.0292,-0.026,-0.0189,-0.0127,-0.0045,0.0074,0.025,0.028,0.0428,0.0314,0.0274,0.0138,-0.0055,-0.0081,-0.0184,-0.0195,-0.0207,-0.0173,-0.0139,-0.0056,-0.0056,-0.0056,-0.0056,-0.0056,0,-0.0319,-0.0302,-0.0272,-0.0223,-0.0166,-0.0164,-0.0057,0.0042,0.0222,0.04,0.0565,0.0543,0.0526,0.036,0.0103,-0.0014,-0.0101,-0.007,-0.0189,-0.0203,-0.0216,-0.0189,-0.0073,-0.0073,-0.0074,-0.0074,0,0,-0.0294,-0.0252,-0.023,-0.0136,-0.0104,-0.0004,0.0071,0.0232,0.0374,0.0611,0.0718,0.0857,0.0619,0.0444,0.0236,0.0072,-0.0033,0.0046,0.0072,-0.0057,-0.0069,-0.0268,-0.0237,0,0,0,0,0]}],[{"header":{"parameterUnit":"m.s-1","parameterCategory":2,"la1":30.2991,"la2":30.254,"lo1":-89.0895,"lo2":-89.0444,"dy":0.0017,"dx":0.0017,"nx":28,"ny":28,"refTime":"2025-06-03T03:00:00:Z","depth":"4","parameterNumber":2,"parameterNumberName":"U-component_of_CURRENTS"},"data":[0,0,0,0,0,0,0,0,0,0,0,0,0,0,0,0,0,0,0,0,0,0,0,0,0,0,0,0,0,0,0,0,0,0,0,0,0,0,0,0,0,0,0,0,0,0,0,0,0,0,0,0,0,0,0,0,0,0,-0.0079,-0.0079,0,-0.0064,-0.0064,-0.0063,-0.0016,-0.0015,-0.0014,-0.0014,0.0224,0.023,0.0236,0,0,0,0,0,0,0,0,0,0,0,0,0,-0.0094,-0.0093,-0.0079,-0.0079,-0.008,-0.0064,-0.0064,-0.0063,-0.0016,-0.0015,-0.0014,-0.0013,0.0222,0.0229,0.0236,0,0,0,0,0,0,0,0,0,0,0,0,0,-0.008,-0.0093,-0.0079,-0.0057,-0.0055,-0.0064,-0.0064,-0.0063,-0.0016,-0.0015,-0.0014,-0.0013,0.022,0.0229,0.0237,0.027,0,0,0.0263,0.0267,0,0,0,0,0,0,0,0,-0.0081,-0.0079,-0.006,-0.0059,-0.0057,-0.0045,0.0018,0.0058,-0.0016,-0.0026,-0.0014,-0.0012,0.0152,0.0166,0.0169,0.0281,0.0291,0.0264,0.0269,0.0273,0.0275,0,0,0,0,0,0,0,-0.0082,-0.0079,-0.0069,-0.0061,-0.0059,-0.0058,-0.0054,0.0025,0.0065,-0.0025,-0.0023,-0.0029,0.0155,0.0161,0.0176,0.0295,0.0264,0.0271,0.0277,0.028,0.0594,0.0597,0,0,0,0,0,0,-0.0092,-0.008,-0.0069,-0.0069,-0.0072,-0.0059,-0.0054,-0.0046,0.0059,0.0073,-0.0029,-0.0026,0.0146,0.0166,0.0185,0.0372,0.0273,0.0281,0.0286,0.0591,0.0595,0.0598,0,0,0,0,0,0,-0.0092,-0.0091,-0.007,-0.0079,-0.0076,-0.006,-0.0051,-0.0046,-0.0014,0.0052,0.0072,0.0001,0.0147,0.0173,0.0306,0.0376,0.0285,0.0292,0.0587,0.0592,0.0596,0.0657,0,0,0,0,0,0,-0.0092,-0.009,-0.0083,-0.0079,-0.0076,-0.0062,-0.0052,-0.0047,-0.0023,-0.0018,0.0085,0.0105,0.015,0.0293,0.0314,0.0387,0.0299,0.0583,0.0589,0.0595,0.0651,0.0663,0.0673,0,0,0,0,0,-0.0093,-0.0085,-0.0082,-0.0081,-0.0068,-0.0062,-0.0059,-0.0042,-0.0022,-0.0008,0.0088,0.0104,0.0346,0.0303,0.0327,0.0403,0.058,0.0588,0.0595,0.0645,0.066,0.0673,0,0,0,0,0,0,-0.0088,-0.008,-0.0076,-0.0066,-0.0061,-0.0055,-0.0048,-0.0029,0.005,0.0074,0.0148,0.0177,0.032,0.0352,0.0302,0.0511,0.0465,0.0477,0.0495,0.051,0.0521,0.0512,0.0306,0,0,0,0,0,-0.0087,-0.0082,-0.0073,-0.0071,-0.0063,-0.0049,-0.0042,-0.0025,0.0032,0.0065,0.0166,0.0267,0.0361,0.0427,0.0514,0.0629,0.0607,0.0693,0.0705,0.0714,0.0725,0.0736,0.0748,0.0622,0.0622,0.0622,0,0,-0.009,-0.0087,-0.0085,-0.0071,-0.0065,-0.0032,-0.004,-0.0022,0.0042,0.0086,0.0243,0.0316,0.0401,0.0535,0.0601,0.0578,0.0738,0.0723,0.073,0.0736,0.0745,0.0757,0.0767,0.0627,0.0626,0.0625,0,0,-0.0098,-0.0085,-0.0078,-0.0064,-0.0051,-0.0023,-0.0009,0.0046,0.0108,0.0247,0.0296,0.0406,0.0583,0.0641,0.0691,0.0815,0.0795,0.0859,0.0919,0.0931,0.094,0.0948,0.0918,0.0923,0.0867,0.0867,0.0867,0,-0.0099,-0.0083,-0.0078,-0.006,-0.0039,-0.0007,0.0026,0.0093,0.0204,0.0282,0.0319,0.0564,0.063,0.0758,0.0813,0.0841,0.0832,0.0855,0.0941,0.0949,0.0956,0.0924,0.0928,0.0871,0.0871,0.087,0.087,0,-0.009,-0.0073,-0.0067,-0.0019,0.0008,0.0036,0.0118,0.0215,0.0321,0.0401,0.0585,0.068,0.082,0.086,0.0891,0.0988,0.0958,0.0945,0.0893,0.0971,0.0933,0.0937,0.0876,0.0875,0.0874,0.0873,0,0,-0.01,-0.0065,-0.006,-0.0034,0.0036,0.0062,0.0194,0.0318,0.0427,0.0578,0.0715,0.0884,0.0937,0.0995,0.1032,0.1053,0.1091,0.1038,0.1037,0.0986,0.1097,0.0939,0.0927,0.1097,0.1098,0.11,0.1042,0,-0.0089,-0.0055,-0.0026,0.0039,0.0071,0.0153,0.0277,0.0399,0.0542,0.0701,0.0805,0.0958,0.0986,0.1061,0.1093,0.1101,0.1109,0.1107,0.105,0.1048,0.0879,0.0929,0.1105,0.1044,0.1045,0.1045,0.1046,0,-0.0079,-0.0056,-0.0002,0.0084,0.0111,0.0186,0.0373,0.0492,0.0698,0.0812,0.096,0.1041,0.1144,0.1135,0.1181,0.1185,0.1159,0.1138,0.1135,0.097,0.0897,0.0958,0.1051,0.1051,0.105,0.105,0.105,0,-0.0089,-0.0033,0.0015,0.0039,0.0154,0.0239,0.035,0.0548,0.0663,0.0889,0.0971,0.1113,0.118,0.1196,0.1169,0.12,0.1149,0.1175,0.0995,0.0982,0.1111,0.1103,0.1178,0.1178,0.1178,0.1178,0.1179,0,-0.0079,-0.0047,0.0023,0.0053,0.0156,0.0255,0.0418,0.0562,0.0746,0.0846,0.103,0.1067,0.1202,0.1186,0.1169,0.1066,0.1147,0.1006,0.0964,0.1136,0.1133,0.1111,0.1104,0.1176,0.1177,0.1177,0.1178,0,-0.0101,-0.006,-0.0009,0.0105,0.015,0.0246,0.0427,0.0543,0.073,0.085,0.0914,0.1053,0.1035,0.1072,0.1059,0.1035,0.0963,0.0888,0.1027,0.0993,0.0799,0.0796,0.0746,0.074,0.0735,0.0731,0.0728,0,-0.0106,-0.0088,0.0004,0.0048,0.0108,0.0248,0.0346,0.054,0.0626,0.0777,0.0792,0.0845,0.0899,0.078,0.0812,0.0764,0.0743,0.074,0.0839,0.0794,0.0759,0.0764,0.0769,0.072,0.0718,0.0717,0.0716,0,-0.0125,-0.0097,-0.0061,0.0022,0.0112,0.0197,0.0331,0.0371,0.0554,0.0679,0.0691,0.071,0.0659,0.0668,0.0623,0.0579,0.0788,0.0689,0.0702,0.0795,0.0761,0.0733,0.0743,0.0698,0.0701,0.0703,0.0704,0,-0.0144,-0.0131,-0.0084,-0.0003,0.0076,0.0135,0.0215,0.0291,0.039,0.0551,0.0493,0.0538,0.0603,0.0554,0.0476,0.046,0.0492,0.0545,0.0567,0.0587,0.0559,0.0494,0.0312,0,0,0,0,0,-0.015,-0.014,-0.0101,-0.002,0.0046,0.0098,0.0191,0.0262,0.0373,0.0369,0.046,0.0404,0.0384,0.038,0.0332,0.0361,0.0462,0.0302,0.0527,0.0603,0.0623,0.0604,0,0,0,0,0,0,-0.0157,-0.0134,-0.0123,-0.0062,-0.0014,0.0061,0.0109,0.0178,0.0191,0.0298,0.0278,0.0378,0.0338,0.0399,0.0323,0.0321,0.0455,0.0326,0.0325,0.0591,0.0609,0.0625,0.0613,0,0,0,0,0]},{"header":{"parameterUnit":"m.s-1","parameterCategory":2,"la1":30.2991,"la2":30.254,"lo1":-89.0895,"lo2":-89.0444,"dy":0.0017,"dx":0.0017,"nx":28,"ny":28,"refTime":"2025-06-03T03:00:00:Z","depth":"4","parameterNumber":3,"parameterNumberName":"V-component_of_CURRENTS"},"data":[0,0,0,0,0,0,0,0,0,0,0,0,0,0,0,0,0,0,0,0,0,0,0,0,0,0,0,0,0,0,0,0,0,0,0,0,0,0,0,0,0,0,0,0,0,0,0,0,0,0,0,0,0,0,0,0,0,0,0.0541,0.0542,0,0.0571,0.0572,0.0572,0.0642,0.0643,0.0645,0.0646,0.0662,0.0661,0.0661,0,0,0,0,0,0,0,0,0,0,0,0,0,0.0517,0.0518,0.0541,0.0542,0.0542,0.0571,0.0572,0.0572,0.0642,0.0643,0.0645,0.0646,0.0662,0.0661,0.0661,0,0,0,0,0,0,0,0,0,0,0,0,0,0.0538,0.0518,0.0541,0.0578,0.0582,0.0571,0.0572,0.0572,0.0641,0.0643,0.0645,0.0647,0.0663,0.0662,0.066,0.0616,0,0,0.0657,0.0657,0,0,0,0,0,0,0,0,0.0536,0.0539,0.0573,0.0576,0.058,0.0603,0.0569,0.0586,0.0641,0.0621,0.0646,0.0648,0.0638,0.0639,0.0644,0.0617,0.0618,0.0657,0.0656,0.0656,0.0656,0,0,0,0,0,0,0,0.0535,0.0538,0.0555,0.0573,0.0577,0.0584,0.0589,0.0573,0.062,0.0623,0.0628,0.0627,0.0641,0.0645,0.0645,0.0618,0.0657,0.0656,0.0655,0.0655,0.0577,0.0576,0,0,0,0,0,0,0.0526,0.0536,0.0554,0.0556,0.056,0.0583,0.0589,0.0595,0.0621,0.0626,0.0625,0.063,0.0646,0.0646,0.0646,0.0645,0.0656,0.0655,0.0654,0.0579,0.0577,0.0575,0,0,0,0,0,0,0.0526,0.0528,0.0553,0.0545,0.0548,0.0581,0.0588,0.0595,0.0638,0.0622,0.0628,0.0665,0.0647,0.0647,0.0668,0.0644,0.0654,0.0653,0.058,0.0578,0.0576,0.0611,0,0,0,0,0,0,0.0525,0.0527,0.0541,0.0544,0.0548,0.0565,0.0586,0.0594,0.063,0.0638,0.0657,0.0658,0.0649,0.067,0.0667,0.0643,0.0653,0.0582,0.0579,0.0577,0.0611,0.061,0.0609,0,0,0,0,0,0.0524,0.0534,0.0541,0.0544,0.0562,0.0565,0.0568,0.0599,0.0631,0.0646,0.067,0.066,0.0649,0.067,0.0666,0.0641,0.0583,0.058,0.0577,0.0612,0.061,0.0609,0,0,0,0,0,0,0.0533,0.0542,0.055,0.0564,0.057,0.0577,0.0596,0.0616,0.0647,0.067,0.0667,0.0669,0.0668,0.0648,0.0671,0.0604,0.0603,0.0599,0.063,0.0629,0.0627,0.0633,0.0652,0,0,0,0,0,0.0536,0.0555,0.0552,0.0569,0.0572,0.059,0.0602,0.0623,0.0642,0.0661,0.068,0.0674,0.0641,0.0639,0.0621,0.0601,0.0571,0.057,0.0569,0.0569,0.0567,0.05,0.0494,0.0565,0.0565,0.0565,0,0,0.0541,0.0554,0.0562,0.0574,0.0586,0.0599,0.0605,0.0633,0.0661,0.0653,0.0715,0.0684,0.0637,0.0616,0.0609,0.0606,0.0534,0.0565,0.0565,0.0563,0.0497,0.049,0.0484,0.0563,0.0563,0.0563,0,0,0.0554,0.0575,0.0587,0.0593,0.0613,0.0628,0.0643,0.0669,0.07,0.0731,0.0716,0.0686,0.0676,0.0625,0.0593,0.0569,0.0535,0.0547,0.0545,0.0481,0.0475,0.047,0.0438,0.0429,0.0541,0.0541,0.0541,0,0.0559,0.0581,0.059,0.0601,0.0617,0.0647,0.0663,0.069,0.073,0.0736,0.076,0.0696,0.0671,0.0593,0.0579,0.0567,0.0536,0.0563,0.0482,0.0476,0.0469,0.0438,0.0428,0.0543,0.0542,0.0542,0.0542,0,0.0573,0.0596,0.0607,0.0639,0.0653,0.0679,0.0702,0.0744,0.0786,0.0788,0.0761,0.0718,0.0666,0.0633,0.0603,0.0519,0.0515,0.0497,0.0495,0.0465,0.0433,0.0422,0.0544,0.0544,0.0544,0.0543,0,0,0.0568,0.0608,0.0615,0.0633,0.0681,0.0691,0.0744,0.0767,0.0791,0.0801,0.079,0.0714,0.0677,0.0634,0.0573,0.051,0.0443,0.0485,0.0481,0.047,0.032,0.0315,0.0302,0.0411,0.0409,0.0407,0.0323,0,0.0581,0.0608,0.0633,0.0676,0.0688,0.0731,0.0774,0.0798,0.0821,0.0823,0.0749,0.0719,0.0679,0.0641,0.0568,0.047,0.0413,0.0469,0.0336,0.0332,0.0344,0.0288,0.04,0.0315,0.0312,0.031,0.0309,0,0.0581,0.0605,0.0641,0.069,0.0701,0.0749,0.0807,0.0847,0.0845,0.0845,0.0786,0.0736,0.0631,0.0612,0.0443,0.0481,0.0403,0.0337,0.0332,0.0306,0.0305,0.0342,0.0289,0.029,0.0292,0.0293,0.0294,0,0.0564,0.0608,0.0648,0.0663,0.0724,0.0771,0.0829,0.0859,0.0884,0.0862,0.0844,0.0728,0.0665,0.0548,0.0412,0.0424,0.0235,0.0238,0.0164,0.0165,0.0185,0.0192,0.0123,0.0123,0.0124,0.0124,0.0124,0,0.0561,0.0588,0.0653,0.0675,0.0737,0.0782,0.085,0.0886,0.0906,0.0878,0.0855,0.076,0.0643,0.0518,0.0407,0.0246,0.0231,0.0152,0.0129,0.0203,0.0212,0.0179,0.0186,0.0121,0.0121,0.0122,0.0122,0,0.053,0.0575,0.0621,0.0702,0.0735,0.0791,0.0891,0.0925,0.0952,0.0909,0.0897,0.0784,0.0614,0.0508,0.0304,0.0242,0.0096,0.0046,0.0149,0.0135,0.0078,0.0088,-0.0035,-0.0036,-0.0037,-0.0038,-0.0038,0,0.0514,0.0529,0.0633,0.0684,0.074,0.0825,0.0888,0.0951,0.0947,0.0869,0.0811,0.0683,0.0578,0.0314,0.02,0.0044,0.0019,-0.001,0.002,0.0065,0.0055,0.0067,0.0078,-0.004,-0.004,-0.0041,-0.0041,0,0.0471,0.0524,0.0565,0.0677,0.0766,0.0833,0.0898,0.0854,0.0862,0.0897,0.0705,0.0585,0.0403,0.0238,0.0151,0.0016,0.0036,-0.0021,-0.0019,0.0008,0.0057,0.0051,0.0063,-0.0044,-0.0044,-0.0043,-0.0043,0,0.0445,0.0469,0.0552,0.0644,0.0742,0.0775,0.0816,0.078,0.0778,0.0677,0.0577,0.0431,0.0362,0.0215,0.0084,0.0014,-0.0003,-0.0001,-0.0001,0.0002,0.0047,0.0116,-0.0004,0,0,0,0,0,0.0421,0.0443,0.0513,0.06,0.0696,0.0772,0.0785,0.08,0.074,0.0613,0.0605,0.0426,0.0249,0.0155,0.0076,0.006,-0.0014,-0.0032,-0.0011,-0.0064,-0.006,-0.0014,0,0,0,0,0,0,0.0401,0.046,0.0486,0.0546,0.0598,0.07,0.0701,0.0681,0.059,0.0527,0.0422,0.0442,0.0262,0.0306,0.0086,0.0064,0.0072,-0.0086,-0.0087,-0.0066,-0.0063,-0.0059,-0.001,0,0,0,0,0]}]]